User: anonymous   Login
Location: Monrovia
(34.7865°N, 86.7139°W)
Time: 13:16:35
(UTC+00:00)
Language:

Nadezhda 1 Rocket - Orbit

View from above orbital plane
View from above orbital plane
View from above satellite
View from above satellite

Ground track
Ground track

The orbit data is extracted from the following two-line orbital elements,

1 20104U 89050B   20262.80025328 +.00000013 +00000-0 -31639-5 0  9991
2 20104 082.9595 008.8854 0044950 093.0959 267.5343 13.77313663568141
Epoch (UTC): 18 September 2020 19:12:21
Eccentricity: 0.0044950
inclination: 82.9595°
perigee height: 940 km
apogee height: 1006 km
right ascension of ascending node: 8.8854°
argument of perigee: 93.0959°
revolutions per day: 13.77313663
mean anomaly at epoch: 267.5343°
orbit number at epoch: 56814

The dashed part of the orbit path shows where the satellite is in the earth's shadow,  

DLR